Вернуться в каталог

ONEWEB-0468

АктивенСвязьPO
NORAD 51652·PAYLOAD·🇬🇧 United Kingdom

Запущен Feb 10, 2022 с Guiana Space Centre

Loading…

Ближайшие Пролёты (ближайшие 24 часа)

TLE

СвежийSource: CelesTrak SupGP

Эпоха: Sep 14, 2026, 13:17 UTC

1 51652C 22012AG  26257.55364998 -.00002940  00000+0 -84317-2 0  2575
2 51652  87.8908  18.4784 0001886  96.1423  16.5935 13.10378109    14

Отслеживайте ONEWEB-0468 в реальном времени с AllMySat

Download on the App Store